Back to catalog

FENGYUN 1C DEB

AliveSSO
NORAD 30840·DEBRIS·🇨🇳 China

Launched May 10, 1999 from Taiyuan Satellite Launch Center

Loading…

Next Passes (next 24 hours)

TLE

FreshSource: Space-Track

Epoch: Sep 14, 2026, 07:01 UTC

1 30840U 99025AWA 26257.29296327  .00001526  00000-0  22389-3 0  9993
2 30840  98.0185 265.8962 0210265 222.4969 135.9793 14.63173667771585

Track FENGYUN 1C DEB in real time with AllMySat

Download on the App Store